sat.trackr.live / text

‹ back to catalog

YAOGAN-43 01F

NORAD 60463 · 2024-148F

PAYLOAD ACTIVE UNKNOWN

§ Identity

Operator
Country
PRC
Launch date
2024-08-16
Launch site
XICLF
Launch vehicle
Mass (kg)
RCS (m²)

External: N2YO · Heavens-Above · Gunter

§ Orbital elements

Epoch: 2026-09-22T23:02:14.280000Z

Period
93.83 min
Inclination
34.9911°
Eccentricity
0.0005892
Mean motion
15.34692208 rev/d
Perigee alt
457.8 km
Apogee alt
465.9 km
Semi-major
6,840.0 km
B*
3.0625e-4
RAAN
243.2797°
Arg perigee
26.2728°
Mean anomaly
333.8288°
Rev number
11,730

§ Raw data

YAOGAN-43 01F1 60463U 24148F   26265.95988750  .00010553  00000+0  30625-3 0  99922 60463  34.9911 243.2797 0005892  26.2728 333.8288 15.34692208117300

JSON: /api/v1/satellites/60463 · /tle

For live sub-satellite position, see the globe view (requires WebGL).

§ Visibility from observer

Set your observer location to see the next 7 days of passes ≥ 10°. The values pass through the URL so the page stays shareable.

No JS? Fill the form by hand. The geolocation button needs JavaScript.